Brookings, OR

2:06 AM PDT on July 28, 2017 (GMT -0700)
Brookings State

Weather History for KBOK - August, 2013

Change the Weather History Date:

Friday, August 2, 2013

  Actual Average Record
Temperature  
Mean Temperature 61 °F -  
Max Temperature 72 °F 69 °F 96 °F (1990)
Min Temperature 50 °F 52 °F 45 °F (1931)
Degree Days  
Heating Degree Days 4    
Growing Degree Days 11 (Base 50)    
Moisture  
Dew Point 53 °F    
Average Humidity 90    
Maximum Humidity 100    
Minimum Humidity 55    
Precipitation  
Precipitation 0.00 in - - ()
Sea Level Pressure  
Sea Level Pressure 30.07 in    
Wind  
Wind Speed 2 mph (South)    
Max Wind Speed 10 mph    
Max Gust Speed 18 mph    
Visibility 6 miles    
Events Fog    
Averages and records for this station are not official NWS values.
T = Trace of Precipitation, MM = Missing Value Source: NWS Daily Summary

Daily Weather History Graph

Daily Weather History Graph

Search for Another Location

Airport or City:

Trip Planner

Search our weather history database for the weather conditions in past years. The results will help you decide how hot, cold, wet, or windy it might be!

Date:

Astronomy

Aug. 02, 2013 Rise Set
Actual Time 6:11 AM PDT 8:34 PM PDT
Civil Twilight 5:40 AM PDT 9:05 PM PDT
Nautical Twilight 5:01 AM PDT 9:44 PM PDT
Astronomical Twilight 4:17 AM PDT 10:27 PM PDT
Moon 2:36 AM PDT (8/2) 5:37 PM PDT (8/2)
Length of Visible Light 15h 25m
Length of Day
14h 22m
Waning Crescent, 15% of the Moon is Illuminated
Aug 2
Waning Crescent
Aug 6
New
Aug 14
First Quarter
Aug 20
Full
Aug 28
Last Quarter

Hourly Weather History & Observations

Time (PDT) Temp. Dew Point Humidity Pressure Visibility Wind Dir Wind Speed Gust Speed Precip Events Conditions
12:28 AM 53.6 °F 53.6 °F 100% 30.13 in 0.2 mi SE 3.5 mph - N/A Fog Fog
12:56 AM 54.0 °F 52.9 °F 96% 30.13 in 0.2 mi Calm Calm - N/A Fog Fog
1:03 AM 53.6 °F 53.6 °F 100% 30.13 in 0.2 mi Calm Calm - N/A Fog Fog
1:20 AM 53.6 °F 53.6 °F 100% 30.12 in 0.2 mi Calm Calm - N/A Fog Fog
1:31 AM 53.6 °F 53.6 °F 100% 30.12 in 0.2 mi Calm Calm - N/A Fog Fog
1:56 AM 52.0 °F 52.0 °F 100% 30.12 in 4.0 mi Calm Calm - N/A   Overcast
2:10 AM 51.8 °F 51.8 °F 100% 30.12 in 2.0 mi Calm Calm - N/A   Overcast
2:17 AM 51.8 °F 51.8 °F 100% 30.12 in 1.2 mi NE 3.5 mph - N/A   Overcast
2:26 AM 51.8 °F 51.8 °F 100% 30.12 in 0.8 mi Calm Calm - N/A   Overcast
2:41 AM 51.8 °F 51.8 °F 100% 30.11 in 1.0 mi Calm Calm - N/A   Overcast
2:56 AM 50.9 °F 50.9 °F 100% 30.12 in 1.0 mi Calm Calm - N/A   Overcast
3:01 AM 51.8 °F 51.8 °F 100% 30.11 in 1.8 mi Calm Calm - N/A   Overcast
3:08 AM 51.8 °F 51.8 °F 100% 30.11 in 3.0 mi Calm Calm - N/A   Overcast
3:56 AM 50.9 °F 50.9 °F 100% 30.11 in 10.0 mi Calm Calm - N/A   Scattered Clouds
4:56 AM 50.0 °F 50.0 °F 100% 30.10 in 10.0 mi Calm Calm - N/A   Clear
5:56 AM 50.0 °F 48.9 °F 96% 30.09 in 10.0 mi Calm Calm - N/A   Clear
6:56 AM 50.9 °F 50.9 °F 100% 30.10 in 10.0 mi Calm Calm - N/A   Clear
7:56 AM 54.0 °F 52.0 °F 93% 30.10 in 10.0 mi Calm Calm - N/A   Clear
8:56 AM 56.8 °F 54.0 °F 90% 30.11 in 8.0 mi Calm Calm - N/A   Partly Cloudy
9:56 AM 57.9 °F 54.0 °F 87% 30.10 in 9.0 mi NW 3.5 mph - N/A   Clear
10:56 AM 59.9 °F 54.0 °F 81% 30.09 in 10.0 mi SW 4.6 mph - N/A   Clear
11:56 AM 63.9 °F 54.9 °F 72% 30.08 in 10.0 mi Variable 5.8 mph - N/A   Clear
12:56 PM 66.9 °F 55.9 °F 68% 30.06 in 9.0 mi Variable 5.8 mph - N/A   Clear
1:56 PM 66.9 °F 55.9 °F 68% 30.05 in 9.0 mi Variable 6.9 mph - N/A   Clear
2:56 PM 72.9 °F 56.8 °F 57% 30.03 in 10.0 mi West 8.1 mph - N/A   Clear
3:56 PM 72.9 °F 55.9 °F 55% 30.02 in 10.0 mi NW 10.4 mph 18.4 mph N/A   Clear
4:56 PM 72.9 °F 56.8 °F 57% 30.01 in 10.0 mi Variable 4.6 mph - N/A   Clear
5:56 PM 65.8 °F 55.9 °F 70% 30.01 in 9.0 mi South 5.8 mph - N/A   Clear
6:56 PM 63.0 °F 54.9 °F 75% 30.00 in 9.0 mi SSE 5.8 mph - N/A   Clear
7:56 PM 61.0 °F 54.9 °F 80% 30.01 in 8.0 mi SE 3.5 mph - N/A   Clear
8:56 PM 56.8 °F 54.0 °F 90% 30.02 in 9.0 mi SE 3.5 mph - N/A   Clear
9:56 PM 55.9 °F 54.0 °F 93% 30.03 in 8.0 mi Calm Calm - N/A   Clear
10:29 PM 55.4 °F 53.6 °F 94% 30.03 in 8.0 mi Calm Calm - N/A   Scattered Clouds
10:39 PM 55.4 °F 53.6 °F 94% 30.03 in 8.0 mi Calm Calm - N/A   Mostly Cloudy
10:56 PM 54.9 °F 54.0 °F 97% 30.03 in 5.0 mi Calm Calm - N/A   Overcast
11:03 PM 55.4 °F 53.6 °F 94% 30.03 in 6.0 mi Calm Calm - N/A   Overcast
11:17 PM 53.6 °F 53.6 °F 100% 30.03 in 1.8 mi Calm Calm - N/A   Overcast
11:25 PM 53.6 °F 53.6 °F 100% 30.02 in 1.2 mi Calm Calm - N/A   Overcast
11:34 PM 53.6 °F 53.6 °F 100% 30.02 in 1.5 mi Calm Calm - N/A   Overcast
11:43 PM 53.6 °F 53.6 °F 100% 30.02 in 1.2 mi NNW 3.5 mph - N/A   Overcast
11:56 PM 54.0 °F 54.0 °F 100% 30.03 in 0.8 mi Calm Calm - N/A   Overcast